FW7016 Weather Reports


Display with metric or nautical units.
time (UTC)temp
F
wind
direction
speed
MPH
gust
MPH
rain 1hr
in
rain 24hr
in
rain mn
in
humidity
%
barometer
mb
20260902100819 64 219 2.0 5.0 0.00 0.00 0.00 58 1019.9
20260902100318 64 249 3.0 5.0 0.00 0.00 0.00 56 1019.7
20260902095814 63 248 5.0 7.0 0.00 0.00 0.00 56 1020.0
20260902095313 60 269 4.0 7.0 0.00 0.00 0.00 63 1019.7
20260902094809 57 231 5.0 6.0 0.00 0.00 0.00 68 1019.6
20260902094305 57 284 5.0 7.0 0.00 0.00 0.00 71 1019.9
20260902093804 60 233 5.0 7.0 0.00 0.00 0.00 66 1020.0
20260902093259 60 273 5.0 6.0 0.00 0.00 0.00 65 1019.7
20260902092758 58 271 6.0 9.0 0.00 0.00 0.00 67 1020.0
20260902092254 56 295 7.0 9.0 0.00 0.00 0.00 71 1020.0
20260902091753 57 282 5.0 6.0 0.00 0.00 0.00 71 1020.0
20260902091249 57 247 2.0 5.0 0.00 0.00 0.00 70 1019.7
20260902090745 57 277 3.0 7.0 0.00 0.00 0.00 71 1019.6
20260902090244 57 287 8.0 10.0 0.00 0.00 0.00 71 1019.9
20260902085739 56 293 6.0 9.0 0.00 0.00 0.00 71 1019.9
20260902085234 56 266 6.0 8.0 0.00 0.00 0.00 72 1019.7
20260902084730 55 222 3.0 7.0 0.00 0.00 0.00 72 1019.7
20260902084226 55 298 3.0 5.0 0.00 0.00 0.00 72 1019.9
20260902083720 57 184 1.0 3.0 0.00 0.00 0.00 72 1020.1
20260902083221 57 227 4.0 7.0 0.00 0.00 0.00 70 1019.9
20260902082716 54 300 4.0 5.0 0.00 0.00 0.00 75 1020.0
20260902082212 55 218 4.0 6.0 0.00 0.00 0.00 75 1020.1
20260902081708 55 236 3.0 6.0 0.00 0.00 0.00 73 1019.9
20260902081203 55 246 3.0 6.0 0.00 0.00 0.00 75 1019.9
20260902080657 54 217 3.0 6.0 0.00 0.00 0.00 76 1019.9
20260902080155 54 222 6.0 7.0 0.00 0.00 0.00 76 1020.2
20260902075654 54 227 5.0 7.0 0.00 0.00 0.00 76 1020.0
20260902075150 54 202 5.0 6.0 0.00 0.00 0.00 76 1020.1
20260902074645 53 218 4.0 6.0 0.00 0.00 0.00 77 1020.0
20260902074140 53 206 3.0 5.0 0.00 0.00 0.00 79 1020.0
20260902073636 54 195 3.0 3.0 0.00 0.00 0.00 76 1020.1
20260902073132 54 195 4.0 8.0 0.00 0.00 0.00 75 1020.2
20260902072628 55 210 4.0 5.0 0.00 0.00 0.00 75 1020.1
20260902072124 55 192 3.0 3.0 0.00 0.00 0.00 74 1020.0
20260902071619 57 201 0.0 0.0 0.00 0.00 0.00 71 1019.9
20260902071115 57 207 1.0 1.0 0.00 0.00 0.00 69 1019.9
20260902070610 56 197 1.0 2.0 0.00 0.00 0.00 71 1019.9
20260902070105 57 193 0.0 2.0 0.00 0.00 0.00 70 1020.1
20260902065604 57 199 1.0 1.0 0.00 0.00 0.00 71 1020.0
20260902065100 58 206 2.0 2.0 0.00 0.00 0.00 69 1019.9
20260902064556 58 211 1.0 2.0 0.00 0.00 0.00 67 1020.0
20260902064050 56 276 3.0 3.0 0.00 0.00 0.00 69 1019.7
20260902063550 55 194 0.0 0.0 0.00 0.00 0.00 74 1020.1
20260902063045 56 194 1.0 2.0 0.00 0.00 0.00 73 1020.0
20260902062544 57 199 0.0 1.0 0.00 0.00 0.00 69 1019.9
20260902062040 59 204 1.0 3.0 0.00 0.00 0.00 67 1019.9
20260902061539 59 243 2.0 2.0 0.00 0.00 0.00 65 1019.7
20260902061035 59 277 3.0 3.0 0.00 0.00 0.00 64 1019.6
20260902060532 57 228 3.0 3.0 0.00 0.00 0.00 68 1019.6
20260902060028 57 209 3.0 3.0 0.00 0.00 0.00 72 1020.1
20260902055523 57 260 3.0 5.0 0.00 0.00 0.00 67 1019.7
20260902055019 57 288 5.0 6.0 0.00 0.00 0.00 68 1019.9
20260902054519 59 312 7.0 7.0 0.00 0.00 0.00 66 1020.1
20260902054015 59 298 5.0 6.0 0.00 0.00 0.00 62 1020.2
20260902053510 58 259 3.0 3.0 0.00 0.00 0.00 64 1020.0
20260902053009 58 281 4.0 5.0 0.00 0.00 0.00 65 1019.9
20260902052504 59 319 3.0 3.0 0.00 0.00 0.00 66 1020.0
20260902052000 60 208 0.0 1.0 0.00 0.00 0.00 63 1020.0
20260902051459 60 212 3.0 5.0 0.00 0.00 0.00 61 1019.9
20260902050958 60 258 3.0 7.0 0.00 0.00 0.00 61 1019.7
20260902050453 60 263 5.0 7.0 0.00 0.00 0.00 62 1019.9
20260902045948 59 299 4.0 6.0 0.00 0.00 0.00 62 1019.9
20260902045443 60 290 5.0 6.0 0.00 0.00 0.00 63 1019.6
20260902044940 61 277 6.0 8.0 0.00 0.00 0.00 61 1019.6
20260902044435 62 264 5.0 7.0 0.00 0.00 0.00 59 1019.9
20260902043930 62 273 4.0 5.0 0.00 0.00 0.00 59 1020.0
20260902043425 62 292 4.0 6.0 0.00 0.00 0.00 57 1020.0
20260902042920 61 252 3.0 7.0 0.00 0.00 0.00 60 1019.9
20260902042414 61 281 6.0 7.0 0.00 0.00 0.00 59 1019.9
20260902041910 62 279 5.0 6.0 0.00 0.00 0.00 58 1019.9
20260902041409 64 283 5.0 6.0 0.00 0.00 0.00 55 1019.7
20260902040908 66 291 4.0 7.0 0.00 0.00 0.00 52 1020.0
20260902040403 66 282 6.0 7.0 0.00 0.00 0.00 51 1019.7
20260902035902 66 245 5.0 7.0 0.00 0.00 0.00 50 1019.9
20260902035352 63 194 5.0 9.0 0.00 0.00 0.00 54 1019.7
20260902034851 63 269 3.0 6.0 0.00 0.00 0.00 58 1019.4
20260902034346 64 169 3.0 6.0 0.00 0.00 0.00 56 1019.5
20260902033844 65 276 7.0 9.0 0.00 0.00 0.00 56 1019.6
20260902033340 66 227 3.0 5.0 0.00 0.00 0.00 53 1019.9
20260902032838 68 229 4.0 8.0 0.00 0.00 0.00 51 1020.0
20260902032339 68 273 5.0 7.0 0.00 0.00 0.00 48 1019.7
20260902031833 64 219 5.0 7.0 0.00 0.00 0.00 52 1019.5
20260902031330 68 223 4.0 7.0 0.00 0.00 0.00 58 1019.4
20260902030824 69 261 6.0 8.0 0.00 0.00 0.00 49 1019.1
20260902030319 70 256 0.0 3.0 0.00 0.00 0.00 48 1019.6
20260902025818 69 252 4.0 7.0 0.00 0.00 0.00 47 1019.4
20260902025314 69 252 6.0 7.0 0.00 0.00 0.00 50 1019.3
20260902024808 71 263 8.0 10.0 0.00 0.00 0.00 48 1019.7
20260902024304 70 261 7.0 9.0 0.00 0.00 0.00 47 1019.3
20260902023759 67 267 7.0 8.0 0.00 0.00 0.00 54 1019.0
20260902023255 66 249 5.0 7.0 0.00 0.00 0.00 54 1019.1
20260902022753 66 235 7.0 9.0 0.00 0.00 0.00 60 1019.1
20260902022244 68 240 5.0 7.0 0.00 0.00 0.00 54 1019.0
20260902021739 69 253 5.0 7.0 0.00 0.00 0.00 52 1018.6
20260902021239 69 242 5.0 6.0 0.00 0.00 0.00 50 1018.7
20260902020735 71 224 5.0 8.0 0.00 0.00 0.00 47 1019.1
20260902020231 71 227 6.0 8.0 0.00 0.00 0.00 47 1018.7
20260902015726 72 223 6.0 8.0 0.00 0.00 0.00 45 1018.8
20260902015223 72 225 6.0 8.0 0.00 0.00 0.00 44 1018.8
20260902014718 72 247 6.0 8.0 0.00 0.00 0.00 44 1018.8
20260902014214 71 233 5.0 8.0 0.00 0.00 0.00 46 1018.4
20260902013712 71 232 6.0 7.0 0.00 0.00 0.00 47 1018.6
20260902013208 72 221 5.0 6.0 0.00 0.00 0.00 47 1018.8
20260902012704 72 216 5.0 7.0 0.00 0.00 0.00 48 1018.4
20260902012200 72 231 4.0 6.0 0.00 0.00 0.00 49 1018.7
20260902011655 73 217 3.0 5.0 0.00 0.00 0.00 50 1018.8
20260902011154 75 228 2.0 5.0 0.00 0.00 0.00 45 1018.6
20260902010654 74 214 0.0 2.0 0.00 0.00 0.00 45 1018.8
20260902010150 73 208 3.0 5.0 0.00 0.00 0.00 47 1018.8
20260902005648 74 223 5.0 6.0 0.00 0.00 0.00 50 1018.8
20260902005144 76 210 3.0 5.0 0.00 0.00 0.00 50 1018.7
20260902004643 76 209 2.0 3.0 0.00 0.00 0.00 47 1018.9
20260902004138 75 221 3.0 5.0 0.00 0.00 0.00 49 1018.9
20260902003634 75 222 3.0 5.0 0.00 0.00 0.00 49 1019.0
20260902003129 76 222 0.0 0.0 0.00 0.00 0.00 50 1019.1
20260902002619 77 216 3.0 5.0 0.00 0.00 0.00 40 1018.7
20260902002113 77 222 3.0 6.0 0.00 0.00 0.00 40 1018.9
20260902001608 78 235 5.0 8.0 0.00 0.00 0.00 36 1019.0
20260902001103 77 254 7.0 10.0 0.00 0.00 0.00 38 1019.1
20260902000558 75 226 9.0 21.0 0.00 0.00 0.00 42 1019.1
20260902000054 75 268 12.0 16.0 0.00 0.00 0.00 47 1019.0
20260901235553 76 228 7.0 9.0 0.00 0.00 0.00 48 1018.6
20260901235049 78 204 6.0 8.0 0.00 0.00 0.00 42 1018.7
20260901234547 77 199 6.0 8.0 0.00 0.00 0.00 42 1018.7
20260901234043 76 195 6.0 8.0 0.00 0.00 0.00 45 1018.6
20260901233543 77 209 5.0 8.0 0.00 0.00 0.00 45 1018.4
20260901233039 76 201 7.0 11.0 0.00 0.00 0.00 45 1018.6
20260901232534 77 217 7.0 8.0 0.00 0.00 0.00 46 1018.7
20260901232029 81 213 11.0 15.0 0.00 0.00 0.00 42 1018.7
20260901231525 81 208 8.0 13.0 0.00 0.00 0.00 40 1018.8
20260901231022 80 212 8.0 9.0 0.00 0.00 0.00 41 1018.8
20260901230521 80 241 8.0 11.0 0.00 0.00 0.00 42 1018.7
20260901230017 80 213 7.0 10.0 0.00 0.00 0.00 39 1018.6
20260901225512 81 223 9.0 11.0 0.00 0.00 0.00 41 1018.7
20260901225006 82 211 6.0 9.0 0.00 0.00 0.00 39 1018.8
20260901224502 81 222 5.0 11.0 0.00 0.00 0.00 39 1018.9
20260901223958 80 209 7.0 8.0 0.00 0.00 0.00 35 1018.7
20260901223454 79 218 5.0 7.0 0.00 0.00 0.00 45 1019.0
20260901222949 77 216 6.0 7.0 0.00 0.00 0.00 46 1018.9
20260901222445 81 230 9.0 10.0 0.00 0.00 0.00 44 1018.8
20260901221941 82 185 9.0 10.0 0.00 0.00 0.00 37 1018.8
20260901221437 82 220 8.0 11.0 0.00 0.00 0.00 38 1018.7
20260901220937 82 183 11.0 14.0 0.00 0.00 0.00 37 1018.9
20260901220436 82 215 10.0 15.0 0.00 0.00 0.00 40 1018.9
20260901215935 80 200 9.0 11.0 0.00 0.00 0.00 39 1019.0
20260901215433 82 223 8.0 13.0 0.00 0.00 0.00 41 1018.8
20260901214932 82 221 9.0 11.0 0.00 0.00 0.00 38 1018.9
20260901214431 81 212 12.0 16.0 0.00 0.00 0.00 41 1019.0
20260901213926 80 213 7.0 8.0 0.00 0.00 0.00 42 1018.9
20260901213421 80 222 7.0 9.0 0.00 0.00 0.00 40 1018.9
20260901212920 82 236 7.0 11.0 0.00 0.00 0.00 39 1019.0
20260901212415 82 234 11.0 13.0 0.00 0.00 0.00 33 1018.9
20260901211912 82 249 10.0 16.0 0.00 0.00 0.00 35 1019.0
20260901211407 83 267 9.0 15.0 0.00 0.00 0.00 33 1018.8
20260901210902 82 259 10.0 15.0 0.00 0.00 0.00 34 1018.9
20260901210358 81 228 9.0 14.0 0.00 0.00 0.00 35 1018.9
20260901205854 78 227 9.0 14.0 0.00 0.00 0.00 41 1019.3
20260901205349 81 241 10.0 15.0 0.00 0.00 0.00 38 1019.3
20260901204844 83 222 14.0 22.0 0.00 0.00 0.00 34 1019.4
20260901204341 83 221 9.0 14.0 0.00 0.00 0.00 31 1019.5
20260901203841 82 262 9.0 13.0 0.00 0.00 0.00 32 1019.5
20260901203340 83 222 13.0 18.0 0.00 0.00 0.00 34 1019.4
20260901202836 83 249 10.0 11.0 0.00 0.00 0.00 35 1019.4
20260901202330 81 168 6.0 10.0 0.00 0.00 0.00 37 1019.1
20260901201827 81 227 11.0 17.0 0.00 0.00 0.00 33 1019.5
20260901201326 81 251 13.0 18.0 0.00 0.00 0.00 35 1019.5
20260901200820 82 299 11.0 18.0 0.00 0.00 0.00 32 1019.3
20260901200316 82 223 9.0 13.0 0.00 0.00 0.00 32 1019.5
20260901195814 82 233 9.0 14.0 0.00 0.00 0.00 32 1019.9
20260901195307 82 233 15.0 18.0 0.00 0.00 0.00 35 1019.7
20260901194803 82 264 9.0 18.0 0.00 0.00 0.00 33 1019.5
20260901194257 82 305 17.0 22.0 0.00 0.00 0.00 32 1019.6
20260901193754 82 259 9.0 13.0 0.00 0.00 0.00 35 1019.7
20260901193253 82 267 15.0 20.0 0.00 0.00 0.00 36 1019.9
20260901192753 82 251 13.0 20.0 0.00 0.00 0.00 36 1019.6
20260901192248 82 254 9.0 18.0 0.00 0.00 0.00 38 1019.6
20260901191744 82 236 11.0 22.0 0.00 0.00 0.00 37 1019.9
20260901191240 82 257 12.0 16.0 0.00 0.00 0.00 34 1019.6
20260901190736 80 261 10.0 14.0 0.00 0.00 0.00 35 1019.7
20260901190236 80 249 15.0 18.0 0.00 0.00 0.00 36 1019.7
20260901185734 80 245 9.0 13.0 0.00 0.00 0.00 37 1020.0
20260901185233 80 224 10.0 14.0 0.00 0.00 0.00 38 1020.0
20260901184729 80 272 9.0 13.0 0.00 0.00 0.00 40 1020.2
20260901184224 80 275 9.0 13.0 0.00 0.00 0.00 39 1020.2
20260901183720 80 235 13.0 18.0 0.00 0.00 0.00 37 1020.2
20260901183219 79 232 8.0 13.0 0.00 0.00 0.00 41 1020.4
20260901182716 78 225 7.0 17.0 0.00 0.00 0.00 37 1020.3
20260901182214 79 230 9.0 14.0 0.00 0.00 0.00 38 1020.6
20260901181710 79 247 7.0 16.0 0.00 0.00 0.00 39 1020.4
20260901181204 79 225 6.0 11.0 0.00 0.00 0.00 39 1020.7
20260901180703 78 242 10.0 15.0 0.00 0.00 0.00 41 1020.7
20260901180157 79 251 12.0 20.0 0.00 0.00 0.00 39 1020.8
20260901175657 79 237 11.0 15.0 0.00 0.00 0.00 39 1021.0
20260901175156 79 223 16.0 20.0 0.00 0.00 0.00 37 1020.8
20260901174652 78 269 11.0 22.0 0.00 0.00 0.00 38 1020.8
20260901174148 78 248 11.0 24.0 0.00 0.00 0.00 40 1020.8
20260901173643 78 250 13.0 18.0 0.00 0.00 0.00 40 1020.9
20260901173138 77 248 12.0 35.0 0.00 0.00 0.00 40 1020.9
20260901172634 77 290 13.0 17.0 0.00 0.00 0.00 40 1021.0
20260901172132 77 266 9.0 15.0 0.00 0.00 0.00 42 1020.9
20260901171632 76 238 17.0 21.0 0.00 0.00 0.00 40 1021.2
20260901171131 76 272 10.0 13.0 0.00 0.00 0.00 45 1021.2
20260901170631 75 249 14.0 27.0 0.00 0.00 0.00 43 1021.0
20260901170126 75 208 8.0 18.0 0.00 0.00 0.00 46 1021.2
20260901165625 74 211 9.0 16.0 0.00 0.00 0.00 48 1021.2
20260901165120 73 247 10.0 14.0 0.00 0.00 0.00 49 1020.9
20260901164615 71 275 9.0 11.0 0.00 0.00 0.00 51 1020.8
20260901164105 70 259 10.0 11.0 0.00 0.00 0.00 52 1020.9
20260901163601 70 260 9.0 11.0 0.00 0.00 0.00 53 1021.2
20260901163059 70 251 9.0 13.0 0.00 0.00 0.00 54 1021.2
20260901162555 70 252 8.0 15.0 0.00 0.00 0.00 55 1021.4
20260901162054 70 245 9.0 15.0 0.00 0.00 0.00 53 1021.3
20260901161553 70 266 6.0 10.0 0.00 0.00 0.00 55 1021.2
20260901161053 70 257 11.0 15.0 0.00 0.00 0.00 52 1021.0
20260901160550 70 239 7.0 13.0 0.00 0.00 0.00 56 1021.2
20260901160044 70 283 11.0 18.0 0.00 0.00 0.00 53 1021.2
20260901155543 70 251 9.0 16.0 0.00 0.00 0.00 54 1021.5
20260901155039 71 261 14.0 17.0 0.00 0.00 0.00 52 1021.0
20260901154538 70 272 12.0 17.0 0.00 0.00 0.00 52 1021.2
20260901154028 71 228 17.0 21.0 0.00 0.00 0.00 53 1021.0
20260901153522 71 252 12.0 21.0 0.00 0.00 0.00 52 1021.3
20260901153017 72 267 12.0 20.0 0.00 0.00 0.00 51 1021.2
20260901152517 72 277 14.0 29.0 0.00 0.00 0.00 50 1021.4
20260901152017 72 250 11.0 22.0 0.00 0.00 0.00 52 1021.0
20260901151512 72 260 15.0 20.0 0.00 0.00 0.00 51 1021.2
20260901151011 72 267 18.0 18.0 0.00 0.00 0.00 52 1021.0
20260901150509 71 268 11.0 16.0 0.00 0.00 0.00 56 1021.2
20260901150008 70 221 12.0 20.0 0.00 0.00 0.00 56 1021.2
20260901145506 69 237 11.0 14.0 0.00 0.00 0.00 60 1021.5
20260901145001 69 265 8.0 13.0 0.00 0.00 0.00 62 1021.2
20260901144456 68 236 8.0 10.0 0.00 0.00 0.00 63 1021.3
20260901143951 67 239 3.0 8.0 0.00 0.00 0.00 67 1021.3
20260901143448 67 237 7.0 10.0 0.00 0.00 0.00 67 1021.4
20260901142944 66 235 6.0 7.0 0.00 0.00 0.00 68 1021.0
20260901142443 65 244 4.0 7.0 0.00 0.00 0.00 71 1021.2
20260901141938 65 240 4.0 7.0 0.00 0.00 0.00 70 1021.0
20260901141433 64 236 4.0 6.0 0.00 0.00 0.00 72 1021.3
20260901140928 64 219 5.0 7.0 0.00 0.00 0.00 72 1021.2
20260901140425 64 290 5.0 8.0 0.00 0.00 0.00 72 1021.3
20260901135920 63 204 7.0 8.0 0.00 0.00 0.00 73 1021.0
20260901135415 62 259 6.0 9.0 0.00 0.00 0.00 74 1021.2
20260901134912 61 252 5.0 6.0 0.00 0.00 0.00 76 1021.0
20260901134407 60 209 3.0 6.0 0.00 0.00 0.00 78 1020.9
20260901133906 60 231 4.0 5.0 0.00 0.00 0.00 79 1020.9
20260901133400 60 221 4.0 5.0 0.00 0.00 0.00 81 1020.9
20260901132859 60 206 2.0 2.0 0.00 0.00 0.00 82 1021.0
20260901132354 60 216 2.0 3.0 0.00 0.00 0.00 81 1021.0
20260901131853 60 229 3.0 5.0 0.00 0.00 0.00 79 1020.7
20260901131352 60 222 2.0 5.0 0.00 0.00 0.00 78 1020.7
20260901130847 60 203 5.0 6.0 0.00 0.00 0.00 77 1020.6
20260901130343 60 249 4.0 7.0 0.00 0.00 0.00 78 1020.9
20260901125840 60 241 3.0 5.0 0.00 0.00 0.00 79 1021.0
20260901125339 60 202 3.0 5.0 0.00 0.00 0.00 79 1020.8
20260901124835 60 257 4.0 6.0 0.00 0.00 0.00 77 1020.8
20260901124330 60 249 5.0 7.0 0.00 0.00 0.00 77 1020.8
20260901123829 61 217 3.0 6.0 0.00 0.00 0.00 76 1020.9
20260901123325 61 244 4.0 7.0 0.00 0.00 0.00 76 1020.6
20260901122823 61 243 5.0 6.0 0.00 0.00 0.00 76 1020.6
20260901122318 60 259 3.0 7.0 0.00 0.00 0.00 77 1020.8
20260901121817 60 240 5.0 7.0 0.00 0.00 0.00 77 1020.3
20260901121312 60 213 3.0 5.0 0.00 0.00 0.00 77 1020.3
20260901120812 60 211 2.0 3.0 0.00 0.00 0.00 77 1020.6
20260901120307 60 246 3.0 6.0 0.00 0.00 0.00 77 1020.2
20260901115803 60 221 4.0 6.0 0.00 0.00 0.00 77 1020.1
20260901115258 60 230 6.0 7.0 0.00 0.00 0.00 77 1020.2
20260901114755 60 221 5.0 7.0 0.00 0.00 0.00 77 1020.1
20260901114250 59 245 4.0 7.0 0.00 0.00 0.00 79 1020.1
20260901113748 59 229 3.0 5.0 0.00 0.00 0.00 80 1019.9
20260901113243 59 191 3.0 5.0 0.00 0.00 0.00 81 1019.9
20260901112738 59 217 3.0 5.0 0.00 0.00 0.00 81 1020.1
20260901112237 59 222 3.0 5.0 0.00 0.00 0.00 80 1020.1
20260901111732 59 232 4.0 5.0 0.00 0.00 0.00 80 1020.0
20260901111231 59 218 4.0 5.0 0.00 0.00 0.00 80 1020.1
20260901110726 59 220 3.0 5.0 0.00 0.00 0.00 79 1020.0
20260901110221 59 219 4.0 6.0 0.00 0.00 0.00 79 1020.2
20260901105718 60 260 5.0 7.0 0.00 0.00 0.00 78 1020.1
20260901105217 60 224 5.0 8.0 0.00 0.00 0.00 77 1020.1
20260901104713 60 235 6.0 7.0 0.00 0.00 0.00 77 1020.1
20260901104209 59 239 5.0 7.0 0.00 0.00 0.00 78 1020.2
20260901103708 60 241 5.0 6.0 0.00 0.00 0.00 78 1020.0
20260901103203 60 238 4.0 6.0 0.00 0.00 0.00 77 1020.2
20260901102658 60 222 4.0 6.0 0.00 0.00 0.00 76 1020.3
20260901102157 60 264 4.0 6.0 0.00 0.00 0.00 76 1020.2
20260901101653 60 263 3.0 6.0 0.00 0.00 0.00 77 1020.1
20260901101152 60 245 4.0 7.0 0.00 0.00 0.00 77 1020.4